Hourly Data Report for October 23, 2019

SEPT-ILES
QUEBEC
Current Station Operator: ECCC - MSC

50°13'00.000" N
66°15'00.000" W
52.60 m
7047914
71279
XZV

Download Data

Hourly Data (October 2019)
Hourly Data Report for October 23, 2019
TIME Temp Definition
°C
Dew Point Definition
°C
Rel Hum Definition
%
Wind Dir Definition
10's deg

Wind Spd Definition
km/h
Visibility Definition
km
Stn Press Definition
kPa
Hmdx Definition


Wind Chill Definition


Weather Definition


00:00 5.9 3.2 83 11 18   101.84     LegendNANA
01:00 5.8 3.7 86 10 17   101.83     LegendNANA
02:00 5.6 4.0 89 10 18   101.79     LegendNANA
03:00 5.4 3.9 90 10 16   101.81     LegendNANA
04:00 5.5 3.8 89 10 17   101.72     LegendNANA
05:00 5.3 3.2 86 10 22   101.59     LegendNANA
06:00 5.5 3.2 85 10 18   101.55     LegendNANA
07:00 5.5 3.2 85 10 18   101.45     LegendNANA
08:00 5.7 3.6 86 9 22   101.48     LegendNANA
09:00 5.5 4.3 92 9 20   101.37     LegendNANA
10:00 5.4 4.7 95 9 18   101.31     LegendNANA
11:00 6.5 5.3 92 9 21   101.08     LegendNANA
12:00 7.3 5.5 88 10 24   101.03     LegendNANA
13:00 7.0 5.5 90 10 22   100.94     LegendNANA
14:00 6.5 5.9 96 10 22   100.85     LegendNANA
15:00 6.3 5.7 96 10 22   100.88     LegendNANA
16:00 6.2 5.8 97 10 23   100.71     LegendNANA
17:00 6.3 5.8 97 10 21   100.66     LegendNANA
18:00 6.5 6.0 97 11 21   100.61     LegendNANA
19:00 6.4 6.0 97 10 18   100.44     LegendNANA
20:00 6.5 6.1 97 10 16   100.39     LegendNANA
21:00 6.6 6.3 98 10 14   100.28     LegendNANA
22:00 6.6 6.3 98 8 10   100.21     LegendNANA
23:00 6.7 6.4 98 8 10   100.13     LegendNANA

Notes on Data Quality.

Legend

  • E = Estimated
  • M = Missing
  • NA = Not Available*
  • [empty] = Indicates an unobserved value
Date modified: